Montego Bay, Jamaica

3:31 PM EST on September 26, 2016 (GMT -0500)
Sangster International

Weather History for MKJS - December, 2012

Change the Weather History Date:

Wednesday, December 5, 2012

  Actual Average Record
Temperature  
Mean Temperature 78 °F -  
Max Temperature 83 °F 83 °F 90 °F (2015)
Min Temperature 73 °F 75 °F 71 °F (2008)
Cooling Degree Days 13    
Growing Degree Days 28 (Base 50)    
Moisture  
Dew Point 71 °F    
Average Humidity 79    
Maximum Humidity 94    
Minimum Humidity 64    
Precipitation  
Precipitation 0.00 in - - ()
Sea Level Pressure  
Sea Level Pressure 29.94 in    
Wind  
Wind Speed 7 mph ()    
Max Wind Speed 17 mph    
Max Gust Speed -    
Visibility 8.1 miles    
Events      
Averages and records for this station are not official NWS values.
T = Trace of Precipitation, MM = Missing Value Source: Averaged Metar Reports

Daily Weather History Graph

Daily Weather History Graph

Search for Another Location

Airport or City:

Trip Planner

Search our weather history database for the weather conditions in past years. The results will help you decide how hot, cold, wet, or windy it might be!

Date:

Astronomy

Dec. 05, 2012 Rise Set
Actual Time 6:30 AM EST 5:34 PM EST
Civil Twilight 6:06 AM EST 5:58 PM EST
Nautical Twilight 5:39 AM EST 6:25 PM EST
Astronomical Twilight 5:12 AM EST 6:52 PM EST
Moon 11:40 PM EST (12/5) 11:29 AM EST (12/5)
Length of Visible Light 11h 51m
Length of Day
11h 04m
Waning Gibbous, 60% of the Moon is Illuminated
Dec 5
Waning Gibbous
Dec 6
Last Quarter
Dec 13
New
Dec 20
First Quarter
Dec 28
Full

Hourly Weather History & Observations

Time (EST) Temp. Heat Index Dew Point Humidity Pressure Visibility Wind Dir Wind Speed Gust Speed Precip Events Conditions
12:00 AM 75.2 °F - 69.8 °F 83% 29.98 in 6.2 mi ENE 8.1 mph - N/A   Mostly Cloudy
1:00 AM 74 °F - 70 °F 83% 29.98 in 12 mi East 6.9 mph - -   Mostly Cloudy
1:00 AM 73.4 °F - 69.8 °F 88% 29.98 in 6.2 mi East 6.9 mph - N/A   Mostly Cloudy
2:00 AM 75.2 °F - 69.8 °F 83% 29.95 in 6.2 mi NE 5.8 mph - N/A   Mostly Cloudy
3:00 AM 73.4 °F - 71.6 °F 94% 29.95 in 6.2 mi East 5.8 mph - N/A   Mostly Cloudy
4:00 AM 75 °F - 71 °F 85% 29.95 in 12 mi East 5.8 mph - -   Mostly Cloudy
4:00 AM 75.2 °F - 71.6 °F 89% 29.95 in 6.2 mi East 5.8 mph - N/A   Mostly Cloudy
5:00 AM 75.2 °F - 71.6 °F 89% 29.92 in 6.2 mi East 5.8 mph - N/A   Mostly Cloudy
6:00 AM 73.4 °F - 69.8 °F 88% 29.95 in 6.2 mi SSE 4.6 mph - N/A   Mostly Cloudy
7:00 AM 74 °F - 70 °F 83%  in 16 mi SE 6.9 mph - -  
7:00 AM 73.4 °F - 69.8 °F 88% 29.95 in 6.2 mi SE 6.9 mph - N/A   Mostly Cloudy
10:00 AM 82 °F - 72 °F 64% 29.99 in 17 mi East 11.5 mph - -   Partly Cloudy
10:00 AM 82.4 °F 87.2 °F 71.6 °F 70% 29.98 in 6.2 mi East 11.5 mph - N/A   Partly Cloudy
11:00 AM 80.6 °F 85.4 °F 73.4 °F 79% 29.98 in 6.2 mi NE 15.0 mph - N/A   Partly Cloudy
12:00 PM 82.4 °F 88.2 °F 73.4 °F 74% 29.95 in 6.2 mi NE 13.8 mph - N/A   Partly Cloudy
1:00 PM 83 °F - 73 °F 65% 29.93 in 19 mi ENE 13.8 mph - -   Scattered Clouds
1:00 PM 82.4 °F 88.2 °F 73.4 °F 74% 29.92 in 6.2 mi ENE 13.8 mph - N/A   Partly Cloudy
2:00 PM 82.4 °F 87.2 °F 71.6 °F 70% 29.89 in 6.2 mi East 17.3 mph - N/A   Partly Cloudy
3:00 PM 80.6 °F 84.6 °F 71.6 °F 74% 29.89 in 6.2 mi ENE 11.5 mph - N/A   Partly Cloudy
4:00 PM 80.6 °F 84.6 °F 71.6 °F 74% 29.89 in 6.2 mi East 11.5 mph - N/A   Partly Cloudy
5:00 PM 78.8 °F - 71.6 °F 78% 29.89 in 6.2 mi East 8.1 mph - N/A   Scattered Clouds
6:00 PM 78.8 °F - 69.8 °F 74% 29.89 in 6.2 mi ESE 6.9 mph - N/A   Scattered Clouds
8:00 PM 77.0 °F - 69.8 °F 78% 29.92 in 6.2 mi SSE 5.8 mph - N/A   Scattered Clouds
9:00 PM 77.0 °F - 69.8 °F 78% 29.95 in 6.2 mi South 5.8 mph - N/A   Scattered Clouds
10:00 PM 77 °F - 69 °F 70% 29.94 in 12 mi SSW 3.5 mph - -   Mostly Cloudy
10:00 PM 77.0 °F - 69.8 °F 78% 29.92 in 6.2 mi SSW 3.5 mph - N/A   Mostly Cloudy
11:00 PM 77.0 °F - 68.0 °F 74% 29.92 in 6.2 mi South 4.6 mph - N/A   Mostly Cloudy